SM2GSR-2 Weather Reports


time (UTC)temp
F
wind
direction
speed
knots
gust
knots
rain 1hr
in
rain 24hr
in
rain mn
in
humidity
%
barometer
mb
20260507201003 30 302 0.0 0.0 0.00 0.01 0.01 72 1013.3
20260507200003 31 302 0.0 0.0 0.00 0.01 0.01 70 1013.1
20260507195003 32 302 0.0 0.0 0.00 0.01 0.01 68 1013.0
20260507194503 32 302 0.0 0.0 0.00 0.01 0.01 68 1012.9
20260507193004 34 303 0.0 0.0 0.00 0.01 0.01 64 1012.7
20260507192503 34 303 0.0 0.0 0.00 0.01 0.01 63 1012.6
20260507192002 35 303 0.0 0.0 0.00 0.01 0.01 61 1012.6
20260507191503 36 304 0.0 0.0 0.00 0.01 0.01 60 1012.5
20260507190503 38 304 0.0 0.0 0.00 0.01 0.01 56 1012.4
20260507190004 39 304 0.0 0.0 0.00 0.01 0.01 53 1012.3
20260507185503 40 304 0.0 0.0 0.00 0.01 0.01 52 1012.3
20260507184503 42 304 0.0 0.0 0.00 0.01 0.01 49 1012.1
20260507184003 42 304 0.0 0.0 0.00 0.01 0.01 47 1012.1
20260507183503 42 304 0.0 0.0 0.00 0.01 0.01 48 1012.0
20260507182503 42 306 0.0 0.0 0.00 0.01 0.01 47 1011.9
20260507182003 42 313 0.0 0.0 0.00 0.01 0.01 46 1011.8
20260507181503 42 292 0.0 0.0 0.00 0.02 0.01 47 1011.8
20260507180503 41 286 0.0 0.0 0.00 0.02 0.01 48 1011.7
20260507180003 41 286 0.0 0.0 0.00 0.02 0.01 48 1011.6
20260507175503 42 286 0.0 0.0 0.00 0.02 0.01 48 1011.6
20260507175003 42 286 0.0 0.0 0.00 0.02 0.01 46 1011.5
20260507174003 43 286 0.0 0.0 0.00 0.02 0.01 45 1011.3
20260507173502 43 286 0.0 0.0 0.00 0.02 0.01 46 1011.3
20260507173004 43 286 0.0 0.0 0.00 0.02 0.01 44 1011.2
20260507172503 44 286 0.0 0.0 0.00 0.02 0.01 44 1011.2
20260507172003 44 286 0.0 0.0 0.00 0.02 0.01 42 1011.2
20260507171003 45 283 0.0 0.9 0.00 0.02 0.01 40 1011.0
20260507170503 46 282 0.9 5.2 0.00 0.02 0.01 38 1011.0
20260507165003 47 288 0.9 7.0 0.00 0.02 0.01 38 1010.8
20260507164504 46 303 0.0 0.9 0.00 0.02 0.01 40 1010.7
20260507163503 46 322 3.5 8.7 0.00 0.02 0.01 40 1010.7
20260507163003 46 294 0.0 0.9 0.00 0.02 0.01 40 1010.6
20260507162503 47 297 0.0 0.9 0.00 0.02 0.01 39 1010.6
20260507162003 47 320 0.0 0.9 0.00 0.02 0.01 40 1010.5
20260507161503 47 327 0.0 0.9 0.00 0.02 0.01 39 1010.5
20260507160503 47 330 4.3 7.8 0.00 0.02 0.01 38 1010.4
20260507160003 47 293 4.3 8.7 0.00 0.02 0.01 38 1010.3
20260507155503 47 309 1.7 7.0 0.00 0.02 0.01 40 1010.3
20260507155003 46 312 0.0 4.3 0.00 0.02 0.01 40 1010.3
20260507154503 46 302 4.3 7.0 0.00 0.02 0.01 39 1010.2
20260507154003 46 318 1.7 10.4 0.00 0.02 0.01 39 1010.2
20260507153504 46 314 0.9 7.8 0.00 0.02 0.01 39 1010.2
20260507153003 47 304 3.5 7.8 0.00 0.02 0.01 37 1010.1
20260507152503 47 308 3.5 7.0 0.00 0.02 0.01 36 1010.1
20260507152003 47 289 4.3 11.3 0.00 0.02 0.01 37 1010.0
20260507151503 47 302 6.1 10.4 0.00 0.02 0.01 36 1010.0
20260507150503 46 327 0.0 0.9 0.00 0.02 0.01 40 1009.9
20260507150002 46 325 0.0 0.0 0.00 0.02 0.01 40 1009.8
20260507145503 46 324 0.0 0.0 0.00 0.03 0.01 41 1009.8
20260507145003 46 324 0.0 4.3 0.00 0.03 0.01 41 1009.9
20260507144503 46 348 0.9 4.3 0.00 0.03 0.01 43 1009.9
20260507144002 45 112 0.0 0.0 0.00 0.03 0.01 48 1009.9
20260507143503 46 112 0.0 0.0 0.00 0.03 0.01 50 1009.9
20260507143003 46 81 0.0 0.9 0.00 0.03 0.01 49 1009.8
20260507142003 47 36 4.3 10.4 0.00 0.03 0.01 48 1009.7
20260507141504 47 57 5.2 10.4 0.00 0.03 0.01 45 1009.7
20260507141003 47 334 7.0 13.0 0.00 0.03 0.01 43 1009.7
20260507140003 45 196 0.0 0.0 0.00 0.03 0.01 48 1009.5
20260507135503 44 196 0.0 0.0 0.00 0.03 0.01 52 1009.5
20260507135003 44 196 0.0 0.0 0.00 0.03 0.01 52 1009.5
20260507134003 44 196 0.0 0.0 0.00 0.03 0.01 52 1009.5
20260507133503 44 196 1.7 4.3 0.00 0.03 0.01 52 1009.5
20260507132503 44 198 0.0 0.0 0.00 0.03 0.01 52 1009.4
20260507132003 44 198 0.0 0.0 0.00 0.03 0.01 51 1009.3
20260507131003 44 214 1.7 6.1 0.00 0.03 0.01 51 1009.4
20260507130503 44 210 0.0 0.0 0.00 0.03 0.01 51 1009.4
20260507130003 44 210 0.0 0.0 0.00 0.03 0.01 50 1009.4
20260507125503 44 210 0.0 0.0 0.00 0.03 0.01 50 1009.3
20260507125003 45 212 0.0 0.0 0.00 0.03 0.01 51 1009.3
20260507124503 45 212 0.9 2.6 0.00 0.03 0.01 52 1009.3
20260507124003 45 186 0.0 5.2 0.00 0.03 0.01 54 1009.4
20260507122503 43 213 0.0 4.3 0.00 0.03 0.01 56 1009.2
20260507122004 43 215 0.0 0.0 0.00 0.03 0.01 56 1009.2
20260507121503 43 207 0.0 0.0 0.00 0.03 0.01 56 1009.2
20260507121003 43 213 0.0 0.0 0.00 0.03 0.01 55 1009.2
20260507120003 44 234 0.0 0.0 0.00 0.03 0.01 56 1009.2
20260507115003 44 314 0.0 0.0 0.00 0.03 0.01 51 1009.1
20260507114503 45 317 0.0 0.0 0.00 0.03 0.01 49 1009.1
20260507114003 45 317 0.0 0.0 0.00 0.03 0.01 50 1009.1
20260507113503 44 317 0.0 0.0 0.00 0.03 0.01 52 1009.0
20260507112003 43 316 0.0 0.0 0.00 0.03 0.01 52 1009.0
20260507111503 43 342 0.0 6.1 0.00 0.03 0.01 53 1009.0
20260507110503 43 236 0.0 0.0 0.00 0.03 0.01 51 1008.9
20260507110003 43 236 0.0 0.0 0.00 0.03 0.01 50 1008.9
20260507105003 46 224 2.6 10.4 0.00 0.03 0.01 49 1008.9
20260507104503 48 289 1.7 11.3 0.00 0.03 0.01 46 1008.8
20260507104004 49 322 1.7 11.3 0.00 0.03 0.01 44 1008.7
20260507103503 48 276 0.9 5.2 0.00 0.03 0.01 43 1008.6
20260507103004 48 296 0.9 6.1 0.00 0.03 0.01 43 1008.5
20260507102502 47 66 0.0 1.7 0.00 0.03 0.01 45 1008.5
20260507102003 46 188 0.0 0.0 0.00 0.03 0.01 46 1008.5
20260507101503 46 264 0.0 4.3 0.00 0.03 0.01 47 1008.6
20260507101003 46 300 5.2 7.8 0.00 0.03 0.01 47 1008.6
20260507100503 46 291 3.5 10.4 0.00 0.03 0.01 47 1008.5
20260507100003 46 340 3.5 10.4 0.00 0.03 0.01 47 1008.5
20260507095502 46 307 4.3 13.0 0.00 0.03 0.01 49 1008.4
20260507095003 46 258 4.3 12.2 0.00 0.03 0.01 47 1008.4
20260507094503 46 314 4.3 8.7 0.01 0.03 0.01 48 1008.4
20260507094003 45 305 2.6 7.8 0.01 0.03 0.01 49 1008.5
20260507093503 44 268 0.9 7.8 0.01 0.03 0.01 50 1008.5
20260507093003 44 320 0.9 6.1 0.01 0.03 0.01 49 1008.4
20260507092503 44 312 2.6 7.0 0.01 0.03 0.01 50 1008.4
20260507092003 44 348 3.5 7.0 0.01 0.03 0.01 49 1008.4
20260507091503 45 356 0.9 6.1 0.01 0.03 0.01 52 1008.4
20260507090504 45 33 0.0 6.1 0.01 0.03 0.01 53 1008.4
20260507090004 45 328 0.9 5.2 0.01 0.03 0.01 51 1008.4
20260507085503 45 246 0.0 7.8 0.01 0.03 0.01 50 1008.4
20260507085003 43 176 1.7 7.0 0.01 0.03 0.01 54 1008.3
20260507084003 42 319 0.0 0.0 0.00 0.02 0.00 54 1008.4
20260507083503 41 319 0.0 0.0 0.00 0.02 0.00 55 1008.4
20260507083003 42 49 0.0 0.0 0.00 0.02 0.00 54 1008.3
20260507082503 42 51 0.0 0.0 0.00 0.02 0.00 58 1008.4
20260507082003 43 51 0.0 0.0 0.00 0.02 0.00 57 1008.4
20260507081003 43 68 0.9 4.3 0.00 0.02 0.00 59 1008.4
20260507080503 43 67 0.9 4.3 0.00 0.02 0.00 61 1008.4
20260507080004 43 73 2.6 8.7 0.00 0.02 0.00 61 1008.3
20260507075503 44 79 0.0 2.6 0.00 0.02 0.00 60 1008.3
20260507075003 44 80 0.9 2.6 0.00 0.02 0.00 59 1008.3
20260507074003 43 94 0.0 2.6 0.00 0.02 0.00 64 1008.3
20260507073503 43 71 2.6 5.2 0.00 0.02 0.00 63 1008.3
20260507073003 42 88 0.0 0.0 0.00 0.02 0.00 66 1008.3
20260507072503 41 92 0.0 0.0 0.00 0.02 0.00 70 1008.3
20260507072003 41 92 0.0 4.3 0.00 0.02 0.00 67 1008.3
20260507070503 40 63 0.0 0.0 0.00 0.02 0.00 71 1008.2
20260507070005 39 69 0.9 4.3 0.00 0.02 0.00 71 1008.3
20260507065503 39 50 0.9 4.3 0.00 0.02 0.00 70 1008.2
20260507065003 39 46 0.0 2.6 0.00 0.02 0.00 71 1008.3
20260507064503 38 57 0.0 0.0 0.00 0.02 0.00 72 1008.2
20260507064003 38 57 0.0 1.7 0.00 0.02 0.00 72 1008.2
20260507063503 38 70 0.0 4.3 0.00 0.02 0.00 75 1008.1
20260507063003 38 70 0.0 4.3 0.00 0.02 0.00 74 1008.1
20260507062503 38 70 0.0 2.6 0.00 0.02 0.00 74 1008.1
20260507062004 38 71 0.0 0.0 0.00 0.02 0.00 75 1008.1
20260507061503 38 73 0.0 2.6 0.00 0.02 0.00 76 1008.0
20260507061003 37 73 1.7 4.3 0.00 0.02 0.00 76 1008.0
20260507060503 37 73 1.7 4.3 0.00 0.02 0.00 78 1008.0
20260507060003 37 46 0.0 0.0 0.00 0.02 0.00 80 1008.0
20260507054503 35 318 0.0 0.0 0.00 0.02 0.00 87 1008.0
20260507053503 34 318 0.0 0.0 0.00 0.02 0.00 90 1007.9
20260507052503 32 317 0.0 0.0 0.00 0.02 0.00 87 1007.9
20260507052003 32 317 0.0 0.0 0.00 0.02 0.00 86 1007.9
20260507051003 31 317 0.0 0.0 0.00 0.02 0.00 86 1007.9
20260507050503 31 317 0.0 0.0 0.00 0.02 0.00 86 1008.0
20260507050003 30 317 0.0 0.0 0.00 0.02 0.00 86 1007.9
20260507045503 30 317 0.0 0.0 0.00 0.02 0.00 86 1007.9
20260507045003 29 317 0.0 0.0 0.00 0.02 0.00 86 1007.9
20260507044503 29 317 0.0 0.0 0.00 0.02 0.00 86 1007.8
20260507044003 28 317 0.0 0.0 0.00 0.02 0.00 86 1007.9
20260507043503 28 317 0.0 0.0 0.00 0.02 0.00 86 1007.9
20260507043003 27 317 0.0 0.0 0.00 0.02 0.00 87 1007.9
20260507042503 27 317 0.0 0.0 0.00 0.02 0.00 87 1007.9
20260507042003 26 317 0.0 0.0 0.00 0.02 0.00 88 1007.9
20260507041503 26 317 0.0 0.0 0.00 0.02 0.00 88 1007.9
20260507041004 26 317 0.0 0.0 0.00 0.02 0.00 88 1007.9
20260507040503 25 317 0.0 0.0 0.00 0.02 0.00 88 1007.9
20260507040003 25 317 0.0 0.0 0.00 0.02 0.00 88 1007.9
20260507035503 25 317 0.0 0.0 0.00 0.02 0.00 89 1007.9
20260507035003 25 317 0.0 0.0 0.00 0.02 0.00 89 1007.8
20260507034504 24 317 0.0 0.0 0.00 0.02 0.00 89 1007.8
20260507034003 24 317 0.0 0.0 0.00 0.02 0.00 89 1007.8
20260507033503 24 317 0.0 0.0 0.00 0.02 0.00 89 1007.7
20260507033003 24 317 0.0 0.0 0.00 0.02 0.00 89 1007.7
20260507032503 23 317 0.0 0.0 0.00 0.02 0.00 89 1007.7
20260507032003 23 317 0.0 0.0 0.00 0.02 0.00 89 1007.7
20260507031504 23 317 0.0 0.0 0.00 0.02 0.00 89 1007.6
20260507031003 23 317 0.0 0.0 0.00 0.02 0.00 89 1007.6
20260507030003 22 317 0.0 0.0 0.00 0.02 0.00 90 1007.5
20260507025003 22 317 0.0 0.0 0.00 0.02 0.00 90 1007.5
20260507024503 22 317 0.0 0.0 0.00 0.02 0.00 90 1007.5
20260507024003 22 317 0.0 0.0 0.00 0.02 0.00 90 1007.5
20260507023503 22 317 0.0 0.0 0.00 0.02 0.00 90 1007.4
20260507023003 22 317 0.0 0.0 0.00 0.02 0.00 90 1007.4
20260507022003 21 317 0.0 0.0 0.00 0.02 0.00 90 1007.4
20260507021503 21 317 0.0 0.0 0.00 0.02 0.00 90 1007.4
20260507021003 21 317 0.0 0.0 0.00 0.02 0.00 90 1007.3
20260507020003 22 317 0.0 0.0 0.00 0.02 0.00 90 1007.3
20260507015503 22 317 0.0 0.0 0.00 0.02 0.00 90 1007.2
20260507015003 22 317 0.0 0.0 0.00 0.02 0.00 90 1007.2
20260507014503 22 317 0.0 0.0 0.00 0.02 0.00 90 1007.2
20260507014004 22 317 0.0 0.0 0.00 0.02 0.00 90 1007.2
20260507013503 22 317 0.0 0.0 0.00 0.02 0.00 90 1007.2
20260507013003 22 317 0.0 0.0 0.00 0.02 0.00 90 1007.2
20260507012003 22 317 0.0 0.0 0.00 0.02 0.00 90 1007.2
20260507011503 22 317 0.0 0.0 0.00 0.02 0.00 90 1007.1
20260507011004 22 317 0.0 0.0 0.00 0.02 0.00 90 1007.2
20260507010504 22 317 0.0 0.0 0.00 0.02 0.00 90 1007.1
20260507010003 22 317 0.0 0.0 0.00 0.02 0.00 90 1007.1
20260507005004 23 317 0.0 0.0 0.00 0.02 0.00 90 1007.1
20260507004503 23 317 0.0 0.0 0.00 0.02 0.00 90 1007.1
20260507004003 23 317 0.0 0.0 0.00 0.02 0.00 90 1007.0
20260507003004 23 317 0.0 0.0 0.00 0.02 0.00 90 1007.0
20260507002503 23 317 0.0 0.0 0.00 0.02 0.00 90 1006.9
20260507002003 23 317 0.0 0.0 0.00 0.02 0.00 90 1006.9
20260507001503 23 317 0.0 0.0 0.00 0.02 0.00 90 1006.9
20260507001003 24 317 0.0 0.0 0.00 0.02 0.00 90 1006.9
20260507000503 24 317 0.0 0.0 0.00 0.02 0.00 90 1006.8
20260506235504 24 317 0.0 0.0 0.00 0.02 0.00 90 1006.8
20260506235004 24 317 0.0 0.0 0.00 0.02 0.00 90 1006.7
20260506234505 24 317 0.0 0.0 0.00 0.02 0.00 90 1006.7
20260506233504 24 317 0.0 0.0 0.00 0.02 0.00 90 1006.6
20260506233006 24 317 0.0 0.0 0.00 0.02 0.00 90 1006.6
20260506232505 24 317 0.0 0.0 0.00 0.02 0.00 90 1006.5
20260506231504 24 317 0.0 0.0 0.00 0.02 0.00 90 1006.5
20260506231003 25 317 0.0 0.0 0.00 0.02 0.00 90 1006.5
20260506230503 25 317 0.0 0.0 0.00 0.02 0.00 90 1006.5
20260506225503 25 317 0.0 0.0 0.00 0.02 0.00 90 1006.5
20260506225003 25 317 0.0 0.0 0.00 0.02 0.00 90 1006.4
20260506224503 25 317 0.0 0.0 0.00 0.02 0.00 90 1006.4
20260506224003 25 317 0.0 0.0 0.00 0.02 0.00 90 1006.4
20260506223503 25 317 0.0 0.0 0.00 0.02 0.00 90 1006.3
20260506223003 25 317 0.0 0.0 0.00 0.02 0.00 90 1006.3
20260506222503 25 317 0.0 0.0 0.00 0.02 0.00 90 1006.3
20260506222003 25 317 0.0 0.0 0.00 0.02 0.00 90 1006.4
20260506221504 25 317 0.0 0.0 0.00 0.02 0.00 90 1006.3
20260506220503 25 317 0.0 0.0 0.00 0.02 0.00 90 1006.2
20260506220003 25 317 0.0 0.0 0.00 0.02 0.00 90 1006.2
20260506215503 25 317 0.0 0.0 0.00 0.02 0.02 90 1006.2
20260506215003 26 317 0.0 0.0 0.00 0.02 0.02 89 1006.1
20260506214503 26 317 0.0 0.0 0.00 0.02 0.02 90 1006.1
20260506214004 26 317 0.0 0.0 0.00 0.02 0.02 90 1006.0
20260506213503 26 317 0.0 0.0 0.00 0.02 0.02 89 1006.0
20260506213003 26 317 0.0 0.0 0.00 0.02 0.02 89 1006.0
20260506212503 26 317 0.0 0.0 0.00 0.02 0.02 89 1006.0
20260506212003 26 317 0.0 0.0 0.00 0.02 0.02 89 1006.0
20260506211503 26 317 0.0 0.0 0.00 0.02 0.02 89 1005.9
20260506211003 26 317 0.0 0.0 0.00 0.02 0.02 89 1005.9
20260506210503 27 317 0.0 0.0 0.00 0.02 0.02 89 1005.9
20260506210003 27 317 0.0 0.0 0.00 0.02 0.02 89 1005.9
20260506205503 27 317 0.0 0.0 0.00 0.02 0.02 89 1005.9
20260506205003 27 317 0.0 0.0 0.00 0.02 0.02 89 1005.9
20260506204503 27 317 0.0 0.0 0.00 0.02 0.02 89 1005.9
20260506204003 27 317 0.0 0.0 0.00 0.02 0.02 88 1005.9
20260506203503 28 317 0.0 0.0 0.00 0.02 0.02 88 1005.9
20260506203004 28 317 0.0 0.0 0.00 0.02 0.02 88 1005.9
20260506202503 28 317 0.0 0.0 0.00 0.02 0.02 88 1005.8
20260506202003 28 317 0.0 0.0 0.00 0.02 0.02 88 1005.8
20260506201503 29 317 0.0 0.0 0.00 0.02 0.02 88 1005.8